Location: Arborea
(39.7744°N, 8.5819°E)
Time: 02:53:28
(UTC+00:00)

Cosmos 1758 Rocket - Pass Details

Date: 24 October 2021
Orbit: 602 x 635 km, 82.5° (Epoch: 27 November)

Event Time Altitude Azimuth Distance (km) Brightness Sun altitude
Rises 18:16:03 0° 354° (N) 2,863 7.1 -20.3°
Reaches altitude 10° 18:18:17 10° 356° (N) 1,958 6.2 -20.8°
Maximum altitude 18:22:36 76° 81° (E) 630 3.3 -21.6°
Enters shadow 18:24:09 39° 160° (SSE) 917 4.2 -21.9°
